QPF
0.00 0.01 0.01 0.00 0.01 0.01 0.01 0.02 0.02 0.03 0.04 0.03 0.03 0.02 0.02 0.02 0.02 0.01 0.01 0.01 0.01 0.01 0.01 0.01 0.01 0.01 0.01 0.01 0.01 0.01 0.01 0.01 0.00 0.00 0.00 0.00 0.00 0.00 0.00 0.00 0.00 0.00 0.00
0.00 0.00 0.01 0.01 0.01 0.01 0.01 0.01 0.01 0.02 0.02 0.02 0.02 0.02 0.01 0.01 0.02 0.01 0.01 0.00 0.00 0.00 0.00 0.00 0.00 0.00 0.01 0.01 0.01 0.01 0.01 0.00 0.00 0.00 0.00 0.00 0.00 0.00 0.00 0.00 0.00 0.00 0.00
0.00 0.00 0.00 0.01 0.01 0.01 0.01 0.01 0.01 0.01 0.01 0.01 0.02 0.03 0.02 0.01 0.01 0.01 0.01 0.00 0.00 0.00 0.00 0.00 0.00 0.00 0.00 0.01 0.01 0.01 0.01 0.01 0.00 0.00 0.00 0.00 0.00 0.00 0.00 0.00 0.00 0.00 0.00
0.00 0.00 0.00 0.00 0.01 0.01 0.01 0.01 0.01 0.01 0.01 0.01 0.01 0.01 0.01 0.01 0.01 0.01 0.01 0.00 0.00 0.00 0.01 0.01 0.01 0.01 0.01 0.01 0.01 0.01 0.01 0.01 0.01 0.01 0.01 0.01 0.00 0.00 0.00 0.00 0.00 0.00 0.00
0.00 0.00 0.00 0.00 0.01 0.01 0.01 0.01 0.02 0.01 0.01 0.01 0.00 0.00 0.00 0.00 0.00 0.00 0.00 0.00 0.00 0.00 0.01 0.01 0.01 0.01 0.01 0.01 0.01 0.01 0.01 0.01 0.02 0.02 0.01 0.01 0.01 0.00 0.00 0.00 0.00 0.00 0.00
0.00 0.00 0.00 0.00 0.01 0.01 0.01 0.01 0.01 0.01 0.01 0.01 0.00 0.00 0.00 0.00 0.00 0.00 0.00 0.00 0.00 0.00 0.00 0.01 0.01 0.00 0.00 0.00 0.01 0.01 0.01 0.02 0.02 0.02 0.02 0.02 0.02 0.01 0.01 0.01 0.01 0.00 0.00
0.00 0.00 0.00 0.00 0.00 0.00 0.00 0.00 0.00 0.00 0.01 0.01 0.01 0.00 0.00 0.00 0.00 0.00 0.00 0.00 0.00 0.00 0.00 0.00 0.00 0.00 0.00 0.00 0.01 0.02 0.02 0.02 0.02 0.02 0.03 0.03 0.03 0.02 0.02 0.01 0.01 0.01 0.00
0.00 0.00 0.00 0.00 0.00 0.00 0.00 0.00 0.00 0.00 0.00 0.00 0.00 0.00 0.00 0.00 0.00 0.00 0.00 0.00 0.00 0.00 0.00 0.00 0.00 0.00 0.00 0.01 0.01 0.02 0.02 0.02 0.02 0.02 0.02 0.03 0.03 0.03 0.02 0.01 0.01 0.00 0.00
0.00 0.00 0.00 0.00 0.00 0.00 0.00 0.00 0.00 0.00 0.00 0.00 0.00 0.00 0.00 0.00 0.00 0.00 0.00 0.00 0.00 0.00 0.00 0.00 0.01 0.01 0.01 0.01 0.01 0.02 0.02 0.02 0.02 0.02 0.03 0.02 0.02 0.02 0.02 0.01 0.01 0.01 0.00
0.00 0.00 0.00 0.00 0.00 0.00 0.00 0.00 0.00 0.00 0.00 0.01 0.00 0.00 0.01 0.01 0.01 0.00 0.00 0.00 0.00 0.00 0.00 0.00 0.01 0.01 0.01 0.01 0.01 0.02 0.02 0.03 0.03 0.03 0.04 0.03 0.03 0.03 0.02 0.02 0.01 0.01 0.01
0.00 0.00 0.00 0.00 0.00 0.00 0.00 0.00 0.00 0.00 0.00 0.00 0.01 0.01 0.01 0.01 0.01 0.01 0.00 0.00 0.00 0.00 0.00 0.00 0.00 0.00 0.01 0.01 0.02 0.02 0.02 0.03 0.03 0.03 0.03 0.03 0.03 0.03 0.03 0.02 0.01 0.01 0.01
0.00 0.00 0.00 0.00 0.00 0.00 0.00 0.00 0.00 0.00 0.00 0.00 0.00 0.00 0.01 0.01 0.01 0.01 0.00 0.00 0.00 0.00 0.00 0.00 0.00 0.01 0.01 0.02 0.03 0.03 0.03 0.04 0.04 0.04 0.03 0.02 0.02 0.02 0.02 0.01 0.01 0.01 0.01
0.00 0.00 0.00 0.00 0.00 0.00 0.00 0.00 0.00 0.00 0.00 0.00 0.00 0.00 0.00 0.00 0.00 0.00 0.00 0.00 0.00 0.00 0.00 0.00 0.01 0.01 0.01 0.02 0.03 0.03 0.04 0.05 0.05 0.05 0.05 0.04 0.03 0.02 0.01 0.01 0.01 0.01 0.01
0.00 0.00 0.00 0.00 0.00 0.00 0.00 0.00 0.00 0.00 0.00 0.00 0.00 0.00 0.00 0.00 0.00 0.00 0.00 0.00 0.00 0.00 0.01 0.01 0.02 0.03 0.03 0.03 0.03 0.04 0.04 0.05 0.05 0.05 0.05 0.04 0.04 0.03 0.02 0.02 0.01 0.01 0.01
0.01 0.01 0.01 0.01 0.01 0.01 0.01 0.01 0.01 0.01 0.01 0.00 0.00 0.00 0.00 0.00 0.00 0.00 0.00 0.00 0.00 0.00 0.01 0.01 0.01 0.01 0.02 0.02 0.03 0.03 0.03 0.03 0.02 0.02 0.03 0.03 0.03 0.03 0.02 0.02 0.02 0.01 0.02
0.01 0.01 0.01 0.01 0.01 0.01 0.01 0.01 0.01 0.01 0.01 0.01 0.00 0.00 0.00 0.00 0.00 0.00 0.00 0.00 0.00 0.01 0.01 0.01 0.01 0.01 0.01 0.02 0.02 0.02 0.03 0.03 0.03 0.03 0.02 0.02 0.03 0.02 0.02 0.02 0.01 0.01 0.02
0.01 0.01 0.01 0.01 0.01 0.00 0.00 0.00 0.00 0.00 0.00 0.00 0.00 0.00 0.00 0.00 0.00 0.00 0.00 0.00 0.00 0.00 0.01 0.01 0.01 0.01 0.02 0.03 0.03 0.02 0.02 0.02 0.02 0.02 0.02 0.02 0.02 0.02 0.03 0.02 0.02 0.01 0.01
0.01 0.00 0.00 0.00 0.00 0.00 0.00 0.00 0.00 0.00 0.00 0.00 0.00 0.00 0.00 0.00 0.00 0.00 0.01 0.01 0.01 0.01 0.01 0.01 0.01 0.01 0.01 0.02 0.02 0.02 0.01 0.01 0.01 0.01 0.01 0.02 0.02 0.02 0.02 0.02 0.02 0.01 0.01
0.01 0.01 0.00 0.00 0.00 0.00 0.00 0.00 0.00 0.00 0.00 0.00 0.00 0.00 0.00 0.01 0.01 0.01 0.01 0.01 0.01 0.01 0.00 0.01 0.01 0.01 0.01 0.01 0.01 0.01 0.01 0.01 0.02 0.02 0.02 0.02 0.02 0.02 0.02 0.02 0.01 0.01 0.01
0.01 0.01 0.01 0.01 0.01 0.00 0.00 0.00 0.00 0.00 0.00 0.00 0.00 0.00 0.00 0.00 0.01 0.01 0.01 0.01 0.01 0.01 0.01 0.01 0.01 0.02 0.02 0.02 0.02 0.01 0.01 0.01 0.01 0.01 0.01 0.01 0.01 0.01 0.01 0.01 0.01 0.01 0.01
0.01 0.01 0.01 0.01 0.01 0.01 0.01 0.01 0.01 0.01 0.01 0.00 0.01 0.01 0.01 0.01 0.01 0.01 0.01 0.01 0.01 0.02 0.02 0.02 0.02 0.02 0.02 0.02 0.01 0.01 0.01 0.01 0.01 0.01 0.01 0.01 0.01 0.01 0.01 0.01 0.01 0.01 0.01
0.01 0.01 0.01 0.01 0.01 0.01 0.01 0.01 0.01 0.01 0.01 0.00 0.00 0.01 0.01 0.01 0.01 0.01 0.01 0.01 0.01 0.01 0.02 0.02 0.02 0.03 0.02 0.02 0.02 0.02 0.02 0.02 0.02 0.02 0.01 0.01 0.01 0.01 0.01 0.01 0.01 0.01 0.01
0.01 0.01 0.01 0.01 0.01 0.01 0.01 0.01 0.01 0.01 0.00 0.00 0.00 0.00 0.01 0.01 0.01 0.01 0.01 0.01 0.01 0.02 0.02 0.02 0.02 0.02 0.02 0.02 0.02 0.02 0.02 0.03 0.02 0.02 0.02 0.02 0.01 0.01 0.01 0.01 0.01 0.01 0.01
0.02 0.02 0.02 0.01 0.01 0.01 0.01 0.01 0.01 0.01 0.01 0.01 0.00 0.00 0.00 0.01 0.01 0.01 0.01 0.01 0.01 0.01 0.02 0.02 0.02 0.02 0.02 0.02 0.02 0.02 0.03 0.03 0.02 0.02 0.02 0.02 0.01 0.01 0.01 0.01 0.01 0.01 0.01
0.03 0.03 0.02 0.01 0.01 0.00 0.01 0.01 0.01 0.02 0.02 0.02 0.02 0.02 0.01 0.01 0.01 0.01 0.01 0.01 0.02 0.01 0.01 0.01 0.02 0.02 0.02 0.02 0.02 0.02 0.03 0.03 0.02 0.02 0.02 0.02 0.01 0.01 0.01 0.01 0.01 0.01 0.01
0.03 0.02 0.02 0.02 0.01 0.01 0.01 0.01 0.01 0.01 0.02 0.02 0.03 0.03 0.03 0.03 0.02 0.02 0.02 0.03 0.03 0.03 0.02 0.01 0.01 0.01 0.02 0.02 0.02 0.02 0.02 0.02 0.02 0.03 0.02 0.02 0.02 0.02 0.01 0.01 0.01 0.01 0.01
MSLP
1012.06 1012.11 1012.17 1012.20 1012.23 1012.26 1012.32 1012.43 1012.60 1012.83 1013.11 1013.44 1013.78 1014.13 1014.48 1014.82 1015.15 1015.47 1015.80 1016.11 1016.42 1016.72 1017.01 1017.28 1017.55 1017.82 1018.10 1018.40 1018.72 1019.06 1019.39 1019.72 1020.01 1020.25 1020.44 1020.60 1020.72 1020.84 1020.98 1021.14 1021.35 1021.59 1021.85
1011.91 1011.96 1011.98 1011.98 1011.96 1011.94 1011.95 1012.01 1012.14 1012.33 1012.58 1012.87 1013.19 1013.51 1013.84 1014.16 1014.49 1014.81 1015.14 1015.47 1015.79 1016.11 1016.40 1016.68 1016.95 1017.22 1017.50 1017.80 1018.13 1018.48 1018.84 1019.21 1019.55 1019.86 1020.12 1020.33 1020.52 1020.69 1020.87 1021.08 1021.33 1021.62 1021.93
1012.03 1012.03 1011.99 1011.92 1011.82 1011.72 1011.66 1011.65 1011.71 1011.84 1012.04 1012.28 1012.55 1012.83 1013.12 1013.41 1013.71 1014.03 1014.36 1014.70 1015.04 1015.39 1015.71 1016.01 1016.30 1016.57 1016.84 1017.14 1017.46 1017.80 1018.18 1018.57 1018.95 1019.30 1019.62 1019.90 1020.14 1020.37 1020.60 1020.86 1021.16 1021.49 1021.85
1012.40 1012.34 1012.22 1012.05 1011.84 1011.64 1011.47 1011.37 1011.35 1011.42 1011.54 1011.72 1011.92 1012.14 1012.36 1012.60 1012.86 1013.15 1013.47 1013.83 1014.20 1014.58 1014.94 1015.28 1015.60 1015.89 1016.17 1016.45 1016.75 1017.09 1017.46 1017.84 1018.24 1018.62 1018.98 1019.31 1019.60 1019.88 1020.16 1020.46 1020.79 1021.16 1021.57
1013.00 1012.88 1012.67 1012.38 1012.06 1011.73 1011.45 1011.25 1011.14 1011.11 1011.16 1011.25 1011.37 1011.51 1011.65 1011.81 1012.01 1012.25 1012.55 1012.90 1013.30 1013.71 1014.13 1014.51 1014.87 1015.19 1015.48 1015.76 1016.06 1016.37 1016.72 1017.10 1017.49 1017.88 1018.26 1018.62 1018.95 1019.26 1019.56 1019.89 1020.25 1020.66 1021.10
1013.77 1013.60 1013.30 1012.91 1012.46 1012.02 1011.63 1011.33 1011.12 1011.01 1010.96 1010.96 1010.99 1011.02 1011.06 1011.12 1011.23 1011.40 1011.65 1011.99 1012.39 1012.83 1013.28 1013.72 1014.12 1014.48 1014.79 1015.09 1015.37 1015.67 1016.00 1016.36 1016.75 1017.14 1017.53 1017.89 1018.24 1018.57 1018.89 1019.23 1019.61 1020.04 1020.51
1014.66 1014.45 1014.08 1013.60 1013.05 1012.51 1012.02 1011.62 1011.32 1011.12 1010.99 1010.89 1010.81 1010.73 1010.65 1010.59 1010.59 1010.67 1010.85 1011.14 1011.52 1011.96 1012.44 1012.92 1013.36 1013.75 1014.10 1014.41 1014.70 1015.00 1015.32 1015.68 1016.06 1016.45 1016.83 1017.21 1017.56 1017.90 1018.23 1018.57 1018.96 1019.40 1019.90
1015.61 1015.38 1014.97 1014.41 1013.79 1013.16 1012.59 1012.11 1011.75 1011.47 1011.25 1011.07 1010.88 1010.68 1010.47 1010.28 1010.15 1010.12 1010.20 1010.40 1010.73 1011.15 1011.62 1012.11 1012.58 1013.00 1013.38 1013.72 1014.04 1014.35 1014.69 1015.06 1015.45 1015.85 1016.24 1016.63 1016.99 1017.33 1017.67 1018.02 1018.41 1018.86 1019.38
1016.58 1016.35 1015.90 1015.30 1014.63 1013.95 1013.32 1012.79 1012.36 1012.02 1011.73 1011.46 1011.17 1010.86 1010.53 1010.21 1009.94 1009.77 1009.73 1009.83 1010.07 1010.42 1010.85 1011.33 1011.79 1012.24 1012.65 1013.02 1013.38 1013.74 1014.12 1014.52 1014.94 1015.37 1015.80 1016.20 1016.59 1016.94 1017.29 1017.66 1018.06 1018.52 1019.05
1017.55 1017.31 1016.85 1016.23 1015.52 1014.81 1014.15 1013.58 1013.11 1012.72 1012.37 1012.03 1011.66 1011.24 1010.80 1010.36 1009.95 1009.65 1009.47 1009.44 1009.56 1009.82 1010.18 1010.61 1011.05 1011.50 1011.93 1012.35 1012.76 1013.18 1013.62 1014.08 1014.57 1015.05 1015.53 1015.98 1016.39 1016.78 1017.16 1017.54 1017.96 1018.44 1018.99
1018.52 1018.28 1017.80 1017.16 1016.44 1015.71 1015.03 1014.44 1013.94 1013.51 1013.11 1012.71 1012.27 1011.78 1011.24 1010.69 1010.17 1009.74 1009.43 1009.26 1009.26 1009.40 1009.67 1010.02 1010.42 1010.85 1011.30 1011.75 1012.22 1012.71 1013.23 1013.78 1014.35 1014.91 1015.46 1015.97 1016.43 1016.87 1017.27 1017.69 1018.14 1018.64 1019.20
1019.49 1019.22 1018.74 1018.09 1017.36 1016.61 1015.92 1015.31 1014.79 1014.32 1013.89 1013.44 1012.95 1012.40 1011.79 1011.17 1010.56 1010.02 1009.59 1009.31 1009.18 1009.21 1009.36 1009.63 1009.97 1010.37 1010.82 1011.31 1011.83 1012.40 1013.01 1013.65 1014.31 1014.96 1015.58 1016.16 1016.68 1017.16 1017.61 1018.06 1018.53 1019.05 1019.62
1020.44 1020.15 1019.65 1018.99 1018.25 1017.51 1016.80 1016.17 1015.62 1015.13 1014.66 1014.18 1013.65 1013.06 1012.42 1011.74 1011.08 1010.48 1009.97 1009.59 1009.36 1009.27 1009.33 1009.51 1009.78 1010.15 1010.59 1011.09 1011.67 1012.30 1012.99 1013.72 1014.46 1015.19 1015.88 1016.52 1017.10 1017.62 1018.11 1018.58 1019.08 1019.61 1020.18
1021.37 1021.04 1020.52 1019.86 1019.13 1018.38 1017.67 1017.02 1016.44 1015.92 1015.41 1014.90 1014.34 1013.74 1013.08 1012.40 1011.72 1011.09 1010.54 1010.10 1009.79 1009.63 1009.60 1009.70 1009.91 1010.23 1010.65 1011.17 1011.77 1012.45 1013.20 1013.99 1014.80 1015.59 1016.33 1017.02 1017.63 1018.19 1018.70 1019.19 1019.69 1020.22 1020.79
1022.22 1021.87 1021.34 1020.69 1019.97 1019.23 1018.51 1017.85 1017.25 1016.69 1016.15 1015.60 1015.03 1014.42 1013.78 1013.11 1012.45 1011.83 1011.28 1010.82 1010.48 1010.27 1010.18 1010.22 1010.38 1010.65 1011.04 1011.55 1012.16 1012.86 1013.64 1014.46 1015.30 1016.13 1016.90 1017.61 1018.24 1018.80 1019.32 1019.81 1020.31 1020.83 1021.37
1022.95 1022.59 1022.08 1021.45 1020.76 1020.05 1019.34 1018.67 1018.05 1017.46 1016.88 1016.31 1015.73 1015.12 1014.50 1013.87 1013.25 1012.67 1012.16 1011.72 1011.39 1011.15 1011.03 1011.03 1011.15 1011.38 1011.74 1012.22 1012.81 1013.50 1014.28 1015.11 1015.95 1016.77 1017.55 1018.25 1018.88 1019.43 1019.93 1020.41 1020.88 1021.37 1021.89
1023.52 1023.18 1022.71 1022.14 1021.50 1020.83 1020.15 1019.49 1018.85 1018.23 1017.63 1017.03 1016.44 1015.84 1015.25 1014.66 1014.11 1013.59 1013.13 1012.74 1012.44 1012.22 1012.10 1012.07 1012.16 1012.36 1012.68 1013.11 1013.67 1014.33 1015.07 1015.87 1016.69 1017.48 1018.23 1018.91 1019.52 1020.05 1020.52 1020.97 1021.41 1021.87 1022.34
1023.92 1023.62 1023.22 1022.72 1022.16 1021.56 1020.93 1020.29 1019.65 1019.01 1018.39 1017.77 1017.17 1016.58 1016.01 1015.47 1014.98 1014.53 1014.14 1013.82 1013.56 1013.38 1013.27 1013.25 1013.31 1013.48 1013.76 1014.15 1014.66 1015.27 1015.96 1016.71 1017.48 1018.23 1018.94 1019.59 1020.16 1020.66 1021.11 1021.52 1021.92 1022.32 1022.74
1024.17 1023.93 1023.60 1023.20 1022.73 1022.21 1021.64 1021.04 1020.42 1019.78 1019.15 1018.52 1017.90 1017.32 1016.77 1016.27 1015.83 1015.45 1015.13 1014.87 1014.67 1014.53 1014.45 1014.44 1014.51 1014.65 1014.90 1015.24 1015.69 1016.24 1016.88 1017.57 1018.28 1018.99 1019.66 1020.27 1020.82 1021.29 1021.71 1022.08 1022.44 1022.79 1023.15
1024.31 1024.12 1023.87 1023.57 1023.20 1022.77 1022.27 1021.73 1021.14 1020.51 1019.87 1019.23 1018.62 1018.03 1017.50 1017.03 1016.63 1016.30 1016.04 1015.84 1015.70 1015.61 1015.57 1015.58 1015.64 1015.78 1016.00 1016.31 1016.71 1017.20 1017.78 1018.42 1019.08 1019.75 1020.38 1020.97 1021.50 1021.96 1022.35 1022.70 1023.01 1023.31 1023.60
1024.38 1024.24 1024.06 1023.84 1023.57 1023.22 1022.80 1022.32 1021.77 1021.17 1020.54 1019.90 1019.28 1018.69 1018.17 1017.71 1017.34 1017.05 1016.84 1016.69 1016.60 1016.56 1016.55 1016.59 1016.67 1016.81 1017.02 1017.31 1017.67 1018.13 1018.66 1019.25 1019.87 1020.51 1021.12 1021.70 1022.22 1022.67 1023.06 1023.38 1023.66 1023.91 1024.12
1024.44 1024.33 1024.20 1024.04 1023.84 1023.57 1023.22 1022.79 1022.28 1021.71 1021.10 1020.47 1019.86 1019.28 1018.76 1018.32 1017.97 1017.71 1017.53 1017.42 1017.37 1017.37 1017.40 1017.48 1017.59 1017.74 1017.95 1018.23 1018.58 1019.01 1019.51 1020.07 1020.66 1021.28 1021.88 1022.45 1022.98 1023.43 1023.82 1024.13 1024.38 1024.57 1024.72
1024.53 1024.42 1024.31 1024.19 1024.03 1023.80 1023.51 1023.13 1022.66 1022.13 1021.55 1020.94 1020.34 1019.77 1019.27 1018.84 1018.51 1018.26 1018.11 1018.03 1018.02 1018.06 1018.14 1018.26 1018.41 1018.59 1018.82 1019.11 1019.46 1019.87 1020.35 1020.89 1021.47 1022.07 1022.66 1023.23 1023.76 1024.22 1024.61 1024.91 1025.14 1025.29 1025.37
1024.65 1024.52 1024.40 1024.28 1024.13 1023.94 1023.67 1023.33 1022.90 1022.41 1021.86 1021.29 1020.72 1020.18 1019.69 1019.29 1018.97 1018.76 1018.63 1018.59 1018.61 1018.69 1018.82 1018.98 1019.17 1019.40 1019.66 1019.97 1020.33 1020.74 1021.21 1021.73 1022.29 1022.87 1023.46 1024.02 1024.54 1025.01 1025.39 1025.68 1025.89 1026.00 1026.03
1024.79 1024.62 1024.47 1024.33 1024.17 1023.97 1023.72 1023.39 1023.00 1022.55 1022.04 1021.52 1020.99 1020.50 1020.06 1019.69 1019.41 1019.23 1019.13 1019.13 1019.19 1019.32 1019.49 1019.70 1019.94 1020.21 1020.51 1020.85 1021.22 1021.64 1022.10 1022.61 1023.14 1023.69 1024.25 1024.79 1025.29 1025.74 1026.11 1026.40 1026.58 1026.67 1026.67
1024.91 1024.69 1024.50 1024.32 1024.13 1023.92 1023.66 1023.35 1022.98 1022.56 1022.11 1021.65 1021.19 1020.76 1020.38 1020.07 1019.85 1019.71 1019.67 1019.70 1019.81 1019.98 1020.21 1020.47 1020.76 1021.07 1021.41 1021.78 1022.16 1022.58 1023.03 1023.50 1024.00 1024.51 1025.02 1025.51 1025.98 1026.39 1026.74 1027.00 1027.17 1027.24 1027.22
Thickness
5666 5667 5667 5669 5669 5670 5670 5670 5670 5669 5668 5668 5667 5666 5664 5664 5663 5662 5661 5659 5658 5657 5655 5654 5653 5651 5650 5649 5647 5645 5642 5639 5637 5636 5634 5632 5630 5629 5626 5624 5622 5619 5617
5658 5659 5660 5662 5663 5664 5665 5665 5664 5663 5663 5663 5662 5661 5659 5658 5656 5654 5653 5652 5651 5650 5649 5648 5646 5645 5643 5642 5640 5638 5635 5632 5630 5630 5629 5627 5625 5622 5618 5616 5613 5611 5609
5654 5654 5654 5656 5657 5658 5659 5659 5659 5657 5657 5656 5654 5652 5651 5650 5649 5648 5647 5645 5645 5644 5643 5641 5640 5638 5636 5635 5633 5631 5629 5626 5623 5621 5621 5620 5621 5616 5612 5608 5605 5602 5600
5648 5649 5650 5650 5651 5652 5651 5651 5651 5651 5650 5649 5649 5648 5648 5647 5646 5644 5641 5639 5637 5636 5635 5634 5633 5631 5629 5628 5626 5624 5622 5619 5616 5612 5610 5610 5609 5605 5603 5600 5596 5593 5591
5641 5642 5643 5644 5645 5644 5643 5644 5644 5644 5643 5643 5643 5642 5642 5641 5639 5637 5634 5632 5630 5629 5628 5626 5625 5624 5622 5620 5618 5616 5614 5612 5610 5606 5601 5598 5595 5595 5593 5592 5588 5584 5581
5632 5634 5635 5635 5636 5635 5635 5635 5636 5636 5636 5636 5636 5636 5635 5633 5631 5630 5628 5626 5623 5621 5620 5619 5617 5616 5614 5612 5610 5607 5605 5603 5600 5597 5594 5590 5588 5586 5583 5581 5579 5576 5572
5624 5625 5626 5627 5627 5627 5627 5628 5629 5629 5629 5628 5628 5628 5628 5626 5625 5623 5621 5619 5617 5615 5613 5611 5610 5608 5606 5604 5601 5599 5596 5594 5591 5588 5585 5581 5578 5575 5572 5569 5567 5565 5562
5615 5616 5618 5619 5620 5620 5621 5621 5621 5621 5621 5620 5620 5620 5620 5619 5618 5616 5614 5612 5610 5608 5605 5603 5601 5599 5597 5595 5592 5590 5587 5584 5582 5579 5575 5572 5568 5564 5561 5557 5555 5554 5553
5604 5606 5608 5610 5611 5612 5613 5614 5613 5612 5612 5612 5611 5612 5611 5610 5609 5607 5605 5603 5601 5599 5597 5594 5592 5590 5588 5586 5583 5581 5578 5575 5572 5569 5565 5562 5558 5553 5550 5547 5544 5541 5541
5593 5595 5598 5600 5602 5603 5603 5604 5604 5603 5603 5602 5602 5601 5601 5600 5599 5597 5595 5593 5592 5589 5587 5585 5583 5580 5578 5576 5573 5571 5568 5565 5562 5558 5555 5551 5548 5543 5538 5534 5531 5529 5527
5581 5584 5586 5588 5590 5591 5592 5593 5593 5592 5592 5592 5591 5590 5590 5589 5588 5587 5585 5584 5582 5580 5578 5576 5573 5571 5568 5566 5564 5561 5558 5555 5551 5547 5544 5540 5535 5532 5528 5524 5520 5516 5513
5568 5572 5574 5575 5578 5580 5581 5581 5582 5582 5581 5580 5580 5579 5578 5578 5577 5576 5575 5573 5571 5570 5568 5566 5564 5561 5559 5557 5555 5552 5548 5545 5541 5537 5533 5529 5524 5520 5517 5513 5509 5506 5502
5556 5559 5561 5563 5565 5567 5569 5569 5570 5570 5569 5568 5568 5568 5567 5566 5566 5565 5563 5562 5560 5559 5557 5555 5554 5552 5549 5547 5544 5541 5538 5534 5530 5526 5522 5518 5513 5510 5506 5502 5498 5495 5491
5544 5547 5549 5551 5552 5553 5555 5556 5557 5556 5556 5556 5556 5556 5555 5554 5554 5553 5552 5550 5549 5548 5547 5544 5543 5541 5539 5536 5533 5530 5527 5523 5519 5514 5510 5506 5503 5499 5496 5491 5488 5484 5481
5531 5533 5535 5537 5538 5540 5541 5542 5543 5543 5544 5544 5544 5543 5542 5541 5541 5540 5540 5539 5538 5536 5535 5533 5531 5529 5527 5524 5521 5518 5515 5512 5508 5503 5499 5495 5491 5487 5484 5480 5477 5474 5471
5517 5520 5522 5523 5525 5527 5528 5528 5529 5530 5531 5531 5531 5530 5530 5529 5529 5529 5528 5527 5526 5524 5523 5521 5519 5517 5515 5513 5509 5507 5504 5501 5497 5493 5488 5485 5480 5477 5472 5469 5466 5463 5460
5504 5506 5509 5511 5512 5513 5514 5515 5516 5516 5517 5518 5518 5518 5518 5517 5517 5516 5515 5515 5513 5512 5510 5509 5507 5506 5504 5500 5498 5494 5492 5489 5485 5481 5477 5474 5470 5466 5462 5459 5455 5452 5448
5490 5493 5495 5497 5499 5500 5501 5501 5502 5503 5504 5504 5505 5505 5505 5504 5504 5503 5503 5502 5501 5499 5498 5497 5495 5494 5491 5488 5485 5482 5480 5477 5474 5470 5467 5463 5460 5455 5451 5449 5445 5442 5438
5478 5480 5482 5484 5485 5487 5487 5488 5489 5490 5491 5491 5491 5492 5492 5492 5491 5490 5490 5489 5488 5487 5485 5484 5482 5481 5479 5476 5473 5470 5468 5465 5462 5458 5455 5452 5448 5445 5441 5438 5435 5432 5428
5464 5465 5468 5470 5472 5473 5474 5476 5476 5477 5477 5477 5477 5477 5478 5479 5478 5478 5477 5476 5475 5474 5472 5471 5469 5468 5466 5463 5461 5459 5457 5454 5451 5447 5444 5440 5437 5434 5430 5427 5424 5421 5418
5449 5451 5454 5456 5457 5459 5461 5462 5463 5463 5462 5463 5463 5464 5465 5465 5465 5465 5464 5464 5462 5461 5459 5458 5456 5455 5453 5451 5449 5447 5444 5442 5439 5437 5434 5430 5426 5423 5419 5416 5413 5411 5407
5434 5437 5439 5441 5442 5444 5447 5449 5449 5448 5449 5450 5451 5451 5452 5452 5452 5452 5452 5451 5449 5447 5446 5444 5443 5441 5439 5438 5436 5434 5432 5429 5427 5426 5423 5420 5416 5412 5409 5406 5403 5399 5396
5420 5422 5424 5426 5427 5430 5433 5435 5434 5435 5436 5437 5438 5439 5439 5439 5439 5439 5439 5438 5436 5434 5432 5431 5430 5428 5426 5425 5423 5422 5420 5417 5416 5414 5411 5408 5404 5401 5398 5395 5392 5389 5386
5406 5408 5411 5413 5414 5416 5418 5420 5420 5421 5424 5425 5426 5426 5426 5426 5426 5426 5425 5424 5422 5421 5419 5418 5417 5416 5414 5413 5412 5410 5408 5406 5404 5402 5399 5396 5394 5390 5387 5385 5382 5379 5375
5393 5395 5398 5400 5401 5403 5405 5406 5407 5409 5411 5412 5413 5413 5413 5413 5412 5412 5411 5410 5409 5407 5406 5405 5404 5403 5403 5402 5400 5399 5397 5395 5393 5390 5388 5386 5383 5381 5378 5375 5372 5368 5365
5381 5383 5385 5387 5388 5390 5392 5393 5394 5396 5398 5399 5400 5400 5400 5400 5400 5399 5398 5396 5395 5394 5393 5392 5392 5391 5391 5389 5389 5387 5386 5384 5382 5380 5378 5376 5374 5371 5368 5365 5361 5358 5355